START_TIME,STEP,MOV.,M6,t_acc.,M7,t_acc.,M19,t_acc.,H36,t_acc.
1979-08-07 18:00:25.580 ,0,1,0.,12.0,0.,12.0,0.,12.0,0.,12.0
1979-08-07 18:00:37.580 ,0,1,0.,12.0,0.,12.0,0.,12.0,0.,12.0
1979-08-07 18:00:49.580 ,3,1,0.,12.0,0.,12.0,0.,12.0,0.,12.0
1979-08-07 18:01:01.580 ,3,1,0.,12.0,0.,12.0,0.,12.0,0.,12.0
1979-08-07 18:01:13.570 ,7,1,0.,12.0,0.,12.0,0.,12.0,0.,12.0
1979-08-07 18:01:25.580 ,7,1,0.,12.0,0.,12.0,0.,12.0,0.,12.0
1979-08-07 18:01:37.570 ,4,1,0.,12.0,0.,12.0,0.,12.0,0.,12.0
1979-08-07 18:01:49.580 ,4,1,0.,12.0,0.,12.0,0.,12.0,0.,12.0
1979-08-07 18:02:01.580 ,0,1,0.,12.0,0.,12.0,0.,12.0,0.,12.0
1979-08-07 18:02:13.580 ,0,1,0.,12.0,0.,12.0,0.,12.0,0.,12.0
1979-08-07 18:02:25.580 ,3,1,0.,12.0,0.,12.0,0.,12.0,0.,12.0
1979-08-07 18:02:37.580 ,3,1,0.,12.0,0.,12.0,0.,12.0,0.,12.0
1979-08-07 18:02:49.580 ,7,1,0.,12.0,0.,12.0,0.,12.0,0.,12.0
1979-08-07 18:03:01.580 ,7,1,0.,12.0,0.,12.0,0.,12.0,0.,12.0
1979-08-07 18:03:13.580 ,4,1,0.,12.0,0.,12.0,0.,12.0,0.,12.0
1979-08-07 18:03:25.580 ,4,1,0.,12.0,0.,12.0,0.,12.0,0.,12.0
1979-08-07 18:03:37.580 ,0,1,0.,12.0,0.,12.0,0.,12.0,0.,12.0
1979-08-07 18:03:49.580 ,0,1,0.,12.0,0.,12.0,0.,12.0,0.,12.0
1979-08-07 18:04:01.570 ,3,1,0.,12.0,0.,12.0,0.,12.0,0.,12.0
1979-08-07 18:04:13.570 ,3,1,0.,12.0,0.,12.0,0.,12.0,0.,12.0
1979-08-07 18:04:25.570 ,7,1,0.,12.0,0.,12.0,0.,12.0,0.,12.0
1979-08-07 18:04:37.570 ,7,1,0.,12.0,0.,12.0,0.,12.0,0.,12.0
1979-08-07 18:04:49.570 ,4,1,0.,12.0,0.,12.0,0.,12.0,0.,12.0
1979-08-07 18:05:01.570 ,4,1,0.,12.0,0.,12.0,0.,12.0,0.,12.0
1979-08-07 18:05:13.570 ,0,1,0.,12.0,0.,12.0,0.,12.0,0.,12.0
1979-08-07 18:05:25.570 ,0,1,0.,12.0,0.,12.0,0.,12.0,0.,12.0
1979-08-07 18:05:37.570 ,0,0,0.,12.0,0.,12.0,0.,12.0,0.,12.0
1979-08-07 18:05:49.570 ,0,0,0.,12.0,0.,12.0,0.,12.0,0.,12.0
1979-08-07 18:06:01.570 ,0,0,0.,12.0,0.,12.0,0.,12.0,0.,12.0
1979-08-07 18:06:13.570 ,0,0,0.,12.0,0.,12.0,0.,12.0,0.,12.0
1979-08-07 18:06:25.570 ,5,1,0.,12.0,0.,12.0,0.,12.0,0.,12.0
1979-08-07 18:06:37.570 ,5,1,0.,12.0,0.,12.0,0.,12.0,0.,12.0
1979-08-07 18:06:49.570 ,5,0,0.,12.0,0.,12.0,0.,12.0,0.,12.0
1979-08-07 18:07:01.570 ,5,0,0.,12.0,0.,12.0,0.,12.0,0.,12.0
1979-08-07 18:07:13.570 ,4,1,0.,12.0,0.,12.0,0.,12.0,0.,12.0
1979-08-07 18:07:25.570 ,4,1,0.,12.0,0.,12.0,0.,12.0,0.,12.0
1979-08-07 18:07:37.570 ,4,0,0.,12.0,0.,12.0,0.,12.0,0.,12.0
1979-08-07 18:07:49.570 ,4,0,0.,12.0,0.,12.0,0.,12.0,0.,12.0
1979-08-07 18:08:01.570 ,3,1,0.,12.0,0.,12.0,0.,12.0,0.,12.0
1979-08-07 18:08:13.570 ,3,1,0.,12.0,0.,12.0,0.,12.0,0.,12.0
1979-08-07 18:08:25.570 ,3,0,0.,12.0,0.,12.0,0.,12.0,0.,12.0
1979-08-07 18:08:37.570 ,3,0,0.,12.0,0.,12.0,0.,12.0,0.,12.0
1979-08-07 18:08:49.570 ,2,1,0.,12.0,0.,12.0,0.,12.0,0.,12.0
1979-08-07 18:09:01.570 ,2,1,0.,12.0,0.,12.0,0.,12.0,0.,12.0
1979-08-07 18:09:13.570 ,2,0,0.,12.0,0.,12.0,0.,12.0,0.,12.0
1979-08-07 18:09:25.570 ,2,0,0.,12.0,0.,12.0,0.,12.0,0.,12.0
1979-08-07 18:09:37.570 ,1,1,0.,12.0,0.,12.0,0.,12.0,0.,12.0
1979-08-07 18:09:49.570 ,1,1,0.,12.0,0.,12.0,0.,12.0,0.,12.0
1979-08-07 18:10:01.570 ,1,0,0.,12.0,0.,12.0,0.,12.0,0.,12.0
1979-08-07 18:10:13.570 ,1,0,0.,12.0,0.,12.0,0.,12.0,0.,12.0
1979-08-07 18:10:25.570 ,0,1,0.,12.0,0.,12.0,0.,12.0,0.,12.0
1979-08-07 18:10:37.570 ,0,1,0.,12.0,0.,12.0,0.,12.0,0.,12.0
1979-08-07 18:10:49.570 ,0,0,0.,12.0,0.,12.0,0.,12.0,0.,12.0
1979-08-07 18:11:01.570 ,0,0,0.,12.0,0.,12.0,0.,12.0,0.,12.0
1979-08-07 18:11:13.570 ,0,1,0.,12.0,0.,12.0,0.,12.0,0.,12.0
1979-08-07 18:11:25.570 ,0,1,0.,12.0,0.,12.0,0.,12.0,0.,12.0
1979-08-07 18:11:37.570 ,0,0,0.,12.0,0.,12.0,0.,12.0,0.,12.0
1979-08-07 18:11:49.570 ,0,0,0.,12.0,0.,12.0,0.,12.0,0.,12.0
1979-08-07 18:12:01.570 ,1,1,0.,12.0,0.,12.0,0.,12.0,0.,12.0
1979-08-07 18:12:13.570 ,1,1,0.,12.0,0.,12.0,0.,12.0,0.,12.0
1979-08-07 18:12:25.570 ,1,0,0.,12.0,0.,12.0,0.,12.0,0.,12.0
1979-08-07 18:12:37.570 ,1,0,1.,12.0,0.,12.0,0.,12.0,0.,12.0
1979-08-07 18:12:49.570 ,2,1,0.,12.0,0.,12.0,0.,12.0,0.,12.0
1979-08-07 18:13:01.570 ,2,1,0.,12.0,0.,12.0,0.,12.0,0.,12.0
1979-08-07 18:13:13.570 ,2,0,0.,12.0,0.,12.0,0.,12.0,0.,12.0
1979-08-07 18:13:25.570 ,2,0,0.,12.0,0.,12.0,0.,12.0,0.,12.0
1979-08-07 18:13:37.570 ,3,1,0.,12.0,0.,12.0,0.,12.0,0.,12.0
1979-08-07 18:13:49.570 ,3,1,0.,12.0,0.,12.0,0.,12.0,0.,12.0
1979-08-07 18:14:01.570 ,3,0,0.,12.0,0.,12.0,0.,12.0,0.,12.0
1979-08-07 18:14:13.570 ,3,0,0.,12.0,0.,12.0,0.,12.0,0.,12.0
1979-08-07 18:14:25.570 ,4,1,0.,12.0,0.,12.0,0.,12.0,0.,12.0
1979-08-07 18:14:37.570 ,4,1,0.,12.0,0.,12.0,0.,12.0,0.,12.0
1979-08-07 18:14:49.570 ,4,0,0.,12.0,0.,12.0,0.,12.0,0.,12.0
1979-08-07 18:15:01.570 ,4,0,0.,12.0,0.,12.0,0.,12.0,0.,12.0
1979-08-07 18:15:13.570 ,5,1,0.,12.0,0.,12.0,0.,12.0,0.,12.0
1979-08-07 18:15:25.570 ,5,1,0.,12.0,0.,12.0,0.,12.0,0.,12.0
1979-08-07 18:15:37.570 ,5,0,0.,12.0,0.,12.0,0.,12.0,0.,12.0
1979-08-07 18:15:49.570 ,5,0,0.,12.0,0.,12.0,0.,12.0,0.,12.0
1979-08-07 18:16:01.570 ,6,1,0.,12.0,0.,12.0,0.,12.0,0.,12.0
1979-08-07 18:16:13.570 ,6,1,0.,12.0,0.,12.0,0.,12.0,0.,12.0
1979-08-07 18:16:25.570 ,6,0,0.,12.0,0.,12.0,0.,12.0,0.,12.0
1979-08-07 18:16:37.570 ,6,0,0.,12.0,0.,12.0,0.,12.0,0.,12.0
1979-08-07 18:16:49.570 ,7,1,0.,12.0,0.,12.0,0.,12.0,0.,12.0
1979-08-07 18:17:01.570 ,7,1,0.,12.0,0.,12.0,0.,12.0,0.,12.0
1979-08-07 18:17:13.570 ,7,0,0.,12.0,0.,12.0,0.,12.0,0.,12.0
1979-08-07 18:17:25.570 ,7,0,0.,12.0,0.,12.0,0.,12.0,0.,12.0
1979-08-07 18:17:37.570 ,7,1,0.,12.0,0.,12.0,0.,12.0,0.,12.0
1979-08-07 18:17:49.570 ,7,1,0.,12.0,0.,12.0,0.,12.0,0.,12.0
1979-08-07 18:18:01.570 ,7,0,0.,12.0,0.,12.0,0.,12.0,0.,12.0
1979-08-07 18:18:13.570 ,7,0,0.,12.0,0.,12.0,0.,12.0,0.,12.0
1979-08-07 18:18:25.570 ,6,1,0.,12.0,0.,12.0,0.,12.0,0.,12.0
1979-08-07 18:18:37.570 ,6,1,0.,12.0,0.,12.0,0.,12.0,0.,12.0
1979-08-07 18:18:49.570 ,6,0,0.,12.0,0.,12.0,0.,12.0,0.,12.0
1979-08-07 18:19:01.570 ,6,0,0.,12.0,0.,12.0,0.,12.0,0.,12.0
1979-08-07 18:19:13.570 ,5,1,0.,12.0,0.,12.0,0.,12.0,0.,12.0
1979-08-07 18:19:25.570 ,5,1,0.,12.0,0.,12.0,0.,12.0,0.,12.0
1979-08-07 18:19:37.570 ,0,0,0.,12.0,0.,12.0,0.,12.0,0.,12.0
1979-08-07 18:19:49.570 ,0,0,0.,12.0,0.,12.0,0.,12.0,0.,12.0
1979-08-07 18:20:49.570 ,0,0,0.,12.0,0.,12.0,0.,12.0,0.,12.0
1979-08-07 18:21:01.570 ,0,0,0.,12.0,0.,12.0,0.,12.0,0.,12.0
1979-08-07 18:21:13.570 ,0,0,0.,12.0,0.,12.0,0.,12.0,0.,12.0
1979-08-07 18:21:25.570 ,0,0,0.,12.0,0.,12.0,0.,12.0,0.,12.0
1979-08-07 18:21:37.570 ,2,1,0.,12.0,0.,12.0,0.,12.0,0.,12.0
1979-08-07 18:21:49.570 ,2,1,0.,12.0,0.,12.0,0.,12.0,0.,12.0
1979-08-07 18:22:01.570 ,2,0,0.,12.0,0.,12.0,0.,12.0,0.,12.0
1979-08-07 18:22:13.570 ,2,0,0.,12.0,0.,12.0,0.,12.0,0.,12.0
1979-08-07 18:23:13.570 ,0,0,0.,12.0,0.,12.0,0.,12.0,0.,12.0
1979-08-07 18:23:25.570 ,0,0,0.,12.0,0.,12.0,0.,12.0,0.,12.0
1979-08-07 18:23:37.570 ,0,0,0.,12.0,0.,12.0,0.,12.0,0.,12.0
1979-08-07 18:23:49.570 ,0,0,0.,12.0,0.,12.0,0.,12.0,0.,12.0
1979-08-07 18:24:01.570 ,0,1,0.,12.0,0.,12.0,0.,12.0,0.,12.0
1979-08-07 18:24:13.570 ,0,1,0.,12.0,0.,12.0,0.,12.0,0.,12.0
1979-08-07 18:24:25.570 ,0,0,0.,12.0,0.,12.0,0.,12.0,0.,12.0
1979-08-07 18:24:37.570 ,0,0,0.,12.0,0.,12.0,0.,12.0,0.,12.0
1979-08-07 18:30:25.570 ,0,0,0.,12.0,0.,12.0,0.,12.0,0.,12.0
1979-08-07 18:30:37.570 ,0,0,0.,12.0,0.,12.0,0.,12.0,0.,12.0
1979-08-07 18:30:49.570 ,0,0,0.,12.0,0.,12.0,0.,12.0,0.,12.0
1979-08-07 18:31:01.570 ,0,0,0.,12.0,0.,12.0,0.,12.0,0.,12.0
1979-08-07 18:32:01.570 ,0,0,0.,12.0,0.,12.0,0.,12.0,0.,12.0
1979-08-07 18:32:13.570 ,0,0,0.,12.0,0.,12.0,0.,12.0,0.,12.0
1979-08-07 18:32:25.570 ,0,0,0.,12.0,0.,12.0,0.,12.0,0.,12.0
1979-08-07 18:32:37.570 ,0,0,0.,12.0,0.,12.0,0.,12.0,0.,12.0
1979-08-07 18:34:25.570 ,0,0,0.,12.0,0.,12.0,0.,12.0,0.,12.0
1979-08-07 18:34:37.570 ,0,0,0.,12.0,0.,12.0,0.,12.0,0.,12.0
1979-08-07 18:34:49.570 ,0,0,0.,12.0,0.,12.0,0.,12.0,0.,12.0
1979-08-07 18:35:01.570 ,0,0,0.,12.0,0.,12.0,0.,12.0,0.,12.0
1979-08-07 18:35:13.570 ,1,1,0.,12.0,0.,12.0,0.,12.0,0.,12.0
1979-08-07 18:35:25.570 ,1,1,0.,12.0,0.,12.0,0.,12.0,0.,12.0
1979-08-07 18:35:37.570 ,1,0,0.,12.0,0.,12.0,0.,12.0,0.,12.0
1979-08-07 18:35:49.570 ,1,0,0.,12.0,0.,12.0,0.,12.0,0.,12.0
1979-08-07 18:36:49.570 ,0,0,0.,12.0,0.,12.0,0.,12.0,0.,12.0
1979-08-07 18:37:01.570 ,0,0,0.,12.0,0.,12.0,0.,12.0,0.,12.0
1979-08-07 18:37:13.570 ,0,0,0.,12.0,0.,12.0,0.,12.0,0.,12.0
1979-08-07 18:37:25.570 ,0,0,0.,12.0,0.,12.0,0.,12.0,0.,12.0
1979-08-07 18:38:25.570 ,0,0,0.,12.0,0.,12.0,0.,12.0,0.,12.0
1979-08-07 18:38:37.570 ,0,0,0.,12.0,0.,12.0,0.,12.0,0.,12.0
1979-08-07 18:38:49.570 ,0,0,0.,12.0,0.,12.0,0.,12.0,0.,12.0
1979-08-07 18:39:01.570 ,0,0,0.,12.0,0.,12.0,0.,12.0,0.,12.0
1979-08-07 18:38:49.570 ,0,0,0.,12.0,0.,12.0,0.,12.0,0.,12.0
1979-08-07 18:39:01.570 ,0,0,0.,12.0,0.,12.0,0.,12.0,0.,12.0
1979-08-07 18:46:25.570 ,0,0,0.,12.0,0.,12.0,0.,12.0,0.,12.0
1979-08-07 18:46:37.570 ,0,0,0.,12.0,0.,12.0,0.,12.0,0.,12.0
1979-08-07 18:46:49.570 ,0,1,0.,12.0,0.,12.0,0.,12.0,0.,12.0
1979-08-07 18:47:01.570 ,0,1,0.,12.0,0.,12.0,0.,12.0,0.,12.0
1979-08-07 18:47:13.570 ,3,1,0.,12.0,0.,12.0,0.,12.0,0.,12.0
1979-08-07 18:47:25.570 ,3,1,0.,12.0,0.,12.0,0.,12.0,0.,12.0
1979-08-07 18:47:37.570 ,7,1,0.,12.0,0.,12.0,0.,12.0,0.,12.0
1979-08-07 18:47:49.570 ,7,1,0.,12.0,0.,12.0,0.,12.0,0.,12.0
1979-08-07 18:51:13.570 ,0,0,0.,12.0,0.,12.0,0.,12.0,0.,12.0
1979-08-07 18:51:25.570 ,0,0,0.,12.0,0.,12.0,0.,12.0,0.,12.0
1979-08-07 18:51:37.570 ,0,1,0.,12.0,0.,12.0,0.,12.0,0.,12.0
1979-08-07 18:51:49.570 ,0,1,0.,12.0,0.,12.0,0.,12.0,0.,12.0
1979-08-07 18:52:01.570 ,3,1,0.,12.0,0.,12.0,0.,12.0,0.,12.0
1979-08-07 18:52:13.570 ,3,1,0.,12.0,0.,12.0,0.,12.0,0.,12.0
1979-08-07 18:52:25.570 ,7,1,0.,12.0,0.,12.0,0.,12.0,0.,12.0
1979-08-07 18:52:37.570 ,7,1,0.,12.0,0.,12.0,0.,12.0,0.,12.0
1979-08-07 18:52:49.570 ,4,1,0.,12.0,0.,12.0,0.,12.0,0.,12.0
1979-08-07 18:53:01.570 ,4,1,0.,12.0,0.,12.0,0.,12.0,0.,12.0
1979-08-07 18:53:13.570 ,0,1,0.,12.0,0.,12.0,0.,12.0,0.,12.0
1979-08-07 18:53:25.570 ,0,1,0.,12.0,0.,12.0,0.,12.0,0.,12.0
1979-08-07 18:53:37.570 ,0,0,0.,12.0,0.,12.0,0.,12.0,1.,12.0
1979-08-07 18:53:49.570 ,0,0,0.,12.0,0.,12.0,0.,12.0,0.,12.0
1979-08-07 18:54:01.570 ,0,0,0.,12.0,0.,12.0,0.,12.0,0.,12.0
1979-08-07 18:54:13.570 ,0,0,0.,12.0,0.,12.0,0.,12.0,0.,12.0
1979-08-07 18:54:25.570 ,5,1,0.,12.0,0.,12.0,0.,12.0,0.,12.0
1979-08-07 18:54:37.570 ,5,1,0.,12.0,0.,12.0,0.,12.0,0.,12.0
1979-08-07 18:54:49.570 ,5,0,0.,12.0,0.,12.0,0.,12.0,0.,12.0
1979-08-07 18:55:01.570 ,5,0,0.,12.0,0.,12.0,0.,12.0,0.,12.0
1979-08-07 18:55:13.570 ,4,1,0.,12.0,0.,12.0,0.,12.0,0.,12.0
1979-08-07 18:55:25.570 ,4,1,0.,12.0,0.,12.0,0.,12.0,0.,12.0
1979-08-07 18:55:37.570 ,4,0,0.,12.0,0.,12.0,0.,12.0,0.,12.0
1979-08-07 18:55:49.570 ,4,0,0.,12.0,0.,12.0,0.,12.0,0.,12.0
1979-08-07 18:56:01.570 ,3,1,0.,12.0,0.,12.0,0.,12.0,0.,12.0
1979-08-07 18:56:13.570 ,3,1,0.,12.0,0.,12.0,0.,12.0,0.,12.0
1979-08-07 18:56:25.570 ,3,0,0.,12.0,0.,12.0,0.,12.0,0.,12.0
1979-08-07 18:56:37.570 ,3,0,0.,12.0,0.,12.0,0.,12.0,0.,12.0
1979-08-07 18:56:49.570 ,2,1,0.,12.0,0.,12.0,0.,12.0,0.,12.0
1979-08-07 18:57:01.570 ,2,1,0.,12.0,0.,12.0,0.,12.0,0.,12.0
1979-08-07 18:57:13.570 ,2,0,0.,12.0,0.,12.0,0.,12.0,0.,12.0
1979-08-07 18:57:25.570 ,2,0,0.,12.0,0.,12.0,0.,12.0,0.,12.0
1979-08-07 18:57:37.570 ,1,1,0.,12.0,0.,12.0,0.,12.0,0.,12.0
1979-08-07 18:57:49.570 ,1,1,0.,12.0,0.,12.0,0.,12.0,0.,12.0
1979-08-07 18:58:01.570 ,1,0,0.,12.0,0.,12.0,0.,12.0,0.,12.0
1979-08-07 18:58:13.570 ,1,0,0.,12.0,0.,12.0,0.,12.0,0.,12.0
1979-08-07 18:58:25.570 ,0,1,0.,12.0,0.,12.0,0.,12.0,0.,12.0
1979-08-07 18:58:37.570 ,0,1,0.,12.0,0.,12.0,0.,12.0,0.,12.0
1979-08-07 18:58:49.570 ,0,0,0.,12.0,0.,12.0,0.,12.0,0.,12.0
1979-08-07 18:59:01.570 ,0,0,0.,12.0,0.,12.0,0.,12.0,0.,12.0
1979-08-07 18:59:13.570 ,0,1,0.,12.0,0.,12.0,0.,12.0,0.,12.0
1979-08-07 18:59:25.570 ,0,1,0.,12.0,0.,12.0,0.,12.0,0.,12.0
1979-08-07 18:59:37.570 ,0,0,0.,12.0,0.,12.0,0.,12.0,0.,12.0
1979-08-07 18:59:49.570 ,0,0,0.,12.0,0.,12.0,0.,12.0,0.,12.0
1979-08-07 19:02:25.570 ,0,0,0.,12.0,0.,12.0,0.,12.0,0.,12.0
1979-08-07 19:02:37.570 ,0,0,0.,12.0,0.,12.0,0.,12.0,0.,12.0
1979-08-07 19:02:49.570 ,0,0,0.,12.0,0.,12.0,0.,12.0,0.,12.0
1979-08-07 19:03:01.570 ,0,0,0.,12.0,0.,12.0,0.,12.0,0.,12.0
1979-08-07 19:07:13.570 ,0,0,0.,12.0,0.,12.0,0.,12.0,0.,12.0
1979-08-07 19:07:25.570 ,0,0,0.,12.0,0.,12.0,0.,12.0,0.,12.0
1979-08-07 19:07:37.570 ,0,0,0.,12.0,0.,12.0,0.,12.0,0.,12.0
1979-08-07 19:07:49.570 ,0,0,0.,12.0,0.,12.0,0.,12.0,0.,12.0
1979-08-07 19:07:37.570 ,0,0,0.,12.0,0.,12.0,0.,12.0,0.,12.0
1979-08-07 19:07:49.570 ,0,0,0.,12.0,0.,12.0,0.,12.0,0.,12.0
1979-08-07 19:08:01.570 ,4,1,0.,12.0,0.,12.0,0.,12.0,0.,12.0
1979-08-07 19:08:13.570 ,4,1,0.,12.0,0.,12.0,0.,12.0,0.,12.0
1979-08-07 19:08:25.570 ,4,0,0.,12.0,0.,12.0,0.,12.0,0.,12.0
1979-08-07 19:08:37.570 ,4,0,0.,12.0,0.,12.0,0.,12.0,0.,12.0
1979-08-07 19:08:49.570 ,3,1,0.,12.0,0.,12.0,0.,12.0,0.,12.0
1979-08-07 19:09:01.570 ,3,1,0.,12.0,0.,12.0,0.,12.0,0.,12.0
1979-08-07 19:09:13.570 ,3,0,0.,12.0,0.,12.0,0.,12.0,0.,12.0
1979-08-07 19:09:25.570 ,3,0,0.,12.0,0.,12.0,0.,12.0,0.,12.0
1979-08-07 19:09:37.570 ,2,1,0.,12.0,0.,12.0,0.,12.0,0.,12.0
1979-08-07 19:09:49.570 ,2,1,0.,12.0,0.,12.0,0.,12.0,0.,12.0
1979-08-07 19:10:01.570 ,2,0,0.,12.0,0.,12.0,0.,12.0,0.,12.0
1979-08-07 19:10:13.570 ,2,0,0.,12.0,0.,12.0,0.,12.0,0.,12.0
1979-08-07 19:11:13.570 ,0,0,0.,12.0,0.,12.0,0.,12.0,0.,12.0
1979-08-07 19:11:25.570 ,0,0,0.,12.0,0.,12.0,0.,12.0,0.,12.0
1979-08-07 19:11:37.570 ,0,0,0.,12.0,0.,12.0,0.,12.0,0.,12.0
1979-08-07 19:11:49.570 ,0,0,0.,12.0,0.,12.0,0.,12.0,0.,12.0
1979-08-07 19:12:01.570 ,0,1,0.,12.0,0.,12.0,0.,12.0,0.,12.0
1979-08-07 19:12:13.570 ,0,1,0.,12.0,0.,12.0,0.,12.0,0.,12.0
1979-08-07 19:12:25.570 ,0,0,0.,12.0,0.,12.0,0.,12.0,0.,12.0
1979-08-07 19:12:37.570 ,0,0,0.,12.0,0.,12.0,0.,12.0,0.,12.0
1979-08-07 19:13:37.570 ,0,0,0.,12.0,0.,12.0,0.,12.0,0.,12.0
1979-08-07 19:13:49.570 ,0,0,0.,12.0,0.,12.0,0.,12.0,0.,12.0
1979-08-07 19:14:01.570 ,0,0,0.,12.0,0.,12.0,0.,12.0,0.,12.0
1979-08-07 19:14:13.570 ,0,0,0.,12.0,0.,12.0,0.,12.0,0.,12.0
1979-08-07 19:14:25.570 ,3,1,0.,12.0,0.,12.0,0.,12.0,0.,12.0
1979-08-07 19:14:37.570 ,3,1,0.,12.0,0.,12.0,0.,12.0,0.,12.0
1979-08-07 19:14:49.570 ,3,0,0.,12.0,0.,12.0,0.,12.0,0.,12.0
1979-08-07 19:15:01.570 ,3,0,0.,12.0,0.,12.0,0.,12.0,0.,12.0
1979-08-07 19:15:13.570 ,4,1,0.,12.0,0.,12.0,0.,12.0,0.,12.0
1979-08-07 19:15:25.570 ,4,1,0.,12.0,0.,12.0,0.,12.0,0.,12.0
1979-08-07 19:15:37.570 ,4,0,0.,12.0,0.,12.0,0.,12.0,0.,12.0
1979-08-07 19:15:49.570 ,4,0,0.,12.0,0.,12.0,0.,12.0,0.,12.0
1979-08-07 19:16:01.570 ,5,1,0.,12.0,0.,12.0,0.,12.0,0.,12.0
1979-08-07 19:16:13.570 ,5,1,0.,12.0,0.,12.0,0.,12.0,0.,12.0
1979-08-07 19:16:25.570 ,5,0,0.,12.0,0.,12.0,0.,12.0,0.,12.0
1979-08-07 19:16:37.570 ,5,0,0.,12.0,0.,12.0,0.,12.0,0.,12.0
1979-08-07 19:16:49.570 ,6,1,0.,12.0,0.,12.0,0.,12.0,0.,12.0
1979-08-07 19:17:01.570 ,6,1,0.,12.0,0.,12.0,0.,12.0,0.,12.0
1979-08-07 19:17:13.570 ,6,0,0.,12.0,0.,12.0,0.,12.0,0.,12.0
1979-08-07 19:17:25.570 ,6,0,0.,12.0,0.,12.0,0.,12.0,0.,12.0
1979-08-07 19:17:37.570 ,7,1,0.,12.0,0.,12.0,0.,12.0,0.,12.0
1979-08-07 19:17:49.570 ,7,1,0.,12.0,0.,12.0,0.,12.0,0.,12.0
1979-08-07 19:18:01.570 ,7,0,0.,12.0,0.,12.0,0.,12.0,0.,12.0
1979-08-07 19:18:13.570 ,7,0,0.,12.0,0.,12.0,0.,12.0,0.,12.0
1979-08-07 19:18:25.570 ,7,1,0.,12.0,0.,12.0,0.,12.0,0.,12.0
1979-08-07 19:18:37.570 ,7,1,0.,12.0,0.,12.0,0.,12.0,0.,12.0
1979-08-07 19:18:49.570 ,7,0,0.,12.0,0.,12.0,0.,12.0,0.,12.0
1979-08-07 19:19:01.570 ,7,0,0.,12.0,0.,12.0,0.,12.0,0.,12.0
1979-08-07 19:19:13.570 ,6,1,0.,12.0,0.,12.0,0.,12.0,0.,12.0
1979-08-07 19:19:25.570 ,6,1,0.,12.0,0.,12.0,0.,12.0,0.,12.0
1979-08-07 19:19:37.570 ,6,0,0.,12.0,0.,12.0,0.,12.0,0.,12.0
1979-08-07 19:19:49.570 ,6,0,0.,12.0,0.,12.0,0.,12.0,0.,12.0
1979-08-07 19:20:01.570 ,5,1,0.,12.0,0.,12.0,0.,12.0,0.,12.0
1979-08-07 19:20:13.570 ,5,1,0.,12.0,0.,12.0,0.,12.0,0.,12.0
1979-08-07 19:20:25.570 ,5,0,0.,12.0,0.,12.0,0.,12.0,0.,12.0
1979-08-07 19:20:37.570 ,5,0,0.,12.0,0.,12.0,0.,12.0,0.,12.0
1979-08-07 19:21:37.570 ,0,0,0.,12.0,0.,12.0,0.,12.0,0.,12.0
1979-08-07 19:21:49.570 ,0,0,0.,12.0,0.,12.0,0.,12.0,0.,12.0
1979-08-07 19:22:01.570 ,0,0,0.,12.0,0.,12.0,0.,12.0,0.,12.0
1979-08-07 19:22:13.570 ,0,0,0.,12.0,0.,12.0,0.,12.0,0.,12.0
1979-08-07 19:22:25.570 ,2,1,0.,12.0,0.,12.0,0.,12.0,0.,12.0
1979-08-07 19:22:37.570 ,2,1,0.,12.0,0.,12.0,0.,12.0,0.,12.0
1979-08-07 19:22:49.570 ,2,0,0.,12.0,0.,12.0,0.,12.0,0.,12.0
1979-08-07 19:23:01.570 ,2,0,0.,12.0,0.,12.0,0.,12.0,0.,12.0
1979-08-07 19:24:49.570 ,0,0,0.,12.0,0.,12.0,0.,12.0,0.,12.0
1979-08-07 19:25:01.570 ,0,0,0.,12.0,0.,12.0,0.,12.0,0.,12.0
1979-08-07 19:25:13.570 ,0,0,31.,12.0,8448.,12.0,3670016.,12.0,62.,12.0
1979-08-07 19:25:25.570 ,0,0,,0,,0,,0,,0
1979-08-07 19:25:13.570 ,0,0,0.,12.0,0.,12.0,0.,12.0,0.,12.0
1979-08-07 19:25:25.570 ,0,0,0.,12.0,0.,12.0,0.,12.0,0.,12.0
1979-08-07 19:25:13.570 ,0,0,0.,12.0,0.,12.0,0.,12.0,0.,12.0
1979-08-07 19:25:25.570 ,0,0,0.,12.0,0.,12.0,0.,12.0,0.,12.0
1979-08-07 19:25:37.570 ,1,1,1.,12.0,0.,12.0,0.,12.0,0.,12.0
1979-08-07 19:25:49.570 ,1,1,0.,12.0,0.,12.0,0.,12.0,0.,12.0
1979-08-07 19:26:01.570 ,1,0,0.,12.0,0.,12.0,0.,12.0,0.,12.0
1979-08-07 19:26:13.570 ,1,0,0.,12.0,0.,12.0,0.,12.0,0.,12.0
1979-08-07 19:26:25.570 ,2,1,0.,12.0,0.,12.0,0.,12.0,0.,12.0
1979-08-07 19:26:37.570 ,2,1,0.,12.0,0.,12.0,0.,12.0,0.,12.0
1979-08-07 19:26:49.570 ,2,0,0.,12.0,0.,12.0,0.,12.0,0.,12.0
1979-08-07 19:27:01.570 ,2,0,0.,12.0,0.,12.0,0.,12.0,0.,12.0
1979-08-07 19:27:13.570 ,3,1,0.,12.0,0.,12.0,0.,12.0,0.,12.0
1979-08-07 19:27:25.570 ,3,1,0.,12.0,0.,12.0,0.,12.0,0.,12.0
1979-08-07 19:27:37.570 ,3,0,0.,12.0,0.,12.0,0.,12.0,0.,12.0
1979-08-07 19:27:49.570 ,3,0,0.,12.0,0.,12.0,0.,12.0,0.,12.0
1979-08-07 19:28:01.570 ,4,1,0.,12.0,0.,12.0,0.,12.0,0.,12.0
1979-08-07 19:28:13.570 ,4,1,0.,12.0,0.,12.0,0.,12.0,0.,12.0
1979-08-07 19:28:25.570 ,4,0,0.,12.0,0.,12.0,0.,12.0,0.,12.0
1979-08-07 19:28:37.570 ,4,0,0.,12.0,0.,12.0,0.,12.0,0.,12.0
1979-08-07 19:28:49.570 ,5,1,0.,12.0,0.,12.0,0.,12.0,0.,12.0
1979-08-07 19:29:01.570 ,5,1,0.,12.0,0.,12.0,0.,12.0,0.,12.0
1979-08-07 19:29:13.570 ,5,0,0.,12.0,0.,12.0,0.,12.0,0.,12.0
1979-08-07 19:29:25.570 ,5,0,0.,12.0,0.,12.0,0.,12.0,0.,12.0
1979-08-07 19:31:13.570 ,0,0,0.,12.0,0.,12.0,0.,12.0,0.,12.0
1979-08-07 19:31:25.570 ,0,0,0.,12.0,0.,12.0,0.,12.0,0.,12.0
1979-08-07 19:31:37.570 ,0,1,0.,12.0,0.,12.0,0.,12.0,0.,12.0
1979-08-07 19:31:49.570 ,0,1,0.,12.0,0.,12.0,0.,12.0,0.,12.0
1979-08-07 19:32:01.570 ,3,1,0.,12.0,0.,12.0,0.,12.0,0.,12.0
1979-08-07 19:32:13.570 ,3,1,0.,12.0,0.,12.0,0.,12.0,0.,12.0
1979-08-07 19:32:25.570 ,7,1,0.,12.0,0.,12.0,0.,12.0,0.,12.0
1979-08-07 19:32:37.570 ,7,1,0.,12.0,0.,12.0,0.,12.0,0.,12.0
1979-08-07 19:32:49.570 ,4,1,0.,12.0,0.,12.0,0.,12.0,0.,12.0
1979-08-07 19:33:01.570 ,4,1,0.,12.0,0.,12.0,0.,12.0,0.,12.0
1979-08-07 19:33:13.570 ,0,1,0.,12.0,0.,12.0,0.,12.0,0.,12.0
1979-08-07 19:33:25.570 ,0,1,0.,12.0,0.,12.0,0.,12.0,0.,12.0
1979-08-07 19:33:37.570 ,3,1,0.,12.0,0.,12.0,0.,12.0,0.,12.0
1979-08-07 19:33:49.570 ,3,1,0.,12.0,0.,12.0,0.,12.0,0.,12.0
1979-08-07 19:34:01.570 ,7,1,0.,12.0,0.,12.0,0.,12.0,0.,12.0
1979-08-07 19:34:13.570 ,7,1,0.,12.0,0.,12.0,0.,12.0,0.,12.0
1979-08-07 19:34:25.570 ,4,1,0.,12.0,0.,12.0,0.,12.0,0.,12.0
1979-08-07 19:34:37.570 ,4,1,0.,12.0,0.,12.0,0.,12.0,0.,12.0
1979-08-07 19:34:49.570 ,0,1,0.,12.0,0.,12.0,0.,12.0,0.,12.0
1979-08-07 19:35:01.570 ,0,1,0.,12.0,0.,12.0,0.,12.0,0.,12.0
1979-08-07 19:35:13.570 ,3,1,0.,12.0,0.,12.0,0.,12.0,0.,12.0
1979-08-07 19:35:25.570 ,3,1,0.,12.0,0.,12.0,0.,12.0,0.,12.0
1979-08-07 19:35:37.570 ,7,1,0.,12.0,0.,12.0,0.,12.0,0.,12.0
1979-08-07 19:35:49.570 ,7,1,0.,12.0,0.,12.0,0.,12.0,0.,12.0
1979-08-07 19:36:01.570 ,4,1,0.,12.0,0.,12.0,0.,12.0,0.,12.0
1979-08-07 19:36:13.570 ,4,1,0.,12.0,0.,12.0,0.,12.0,0.,12.0
1979-08-07 19:36:25.570 ,0,1,0.,12.0,0.,12.0,0.,12.0,0.,12.0
1979-08-07 19:36:37.570 ,0,1,0.,12.0,0.,12.0,0.,12.0,0.,12.0
1979-08-07 19:36:49.570 ,3,1,0.,12.0,0.,12.0,0.,12.0,0.,12.0
1979-08-07 19:37:01.570 ,3,1,0.,12.0,0.,12.0,0.,12.0,0.,12.0
1979-08-07 19:37:13.570 ,7,1,0.,12.0,0.,12.0,0.,12.0,0.,12.0
1979-08-07 19:37:25.570 ,7,1,0.,12.0,0.,12.0,0.,12.0,0.,12.0
1979-08-07 19:37:37.570 ,4,1,0.,12.0,0.,12.0,0.,12.0,0.,12.0
1979-08-07 19:37:49.570 ,4,1,0.,12.0,0.,12.0,0.,12.0,0.,12.0
1979-08-07 19:38:01.570 ,0,1,0.,12.0,0.,12.0,0.,12.0,0.,12.0
1979-08-07 19:38:13.570 ,0,1,0.,12.0,0.,12.0,0.,12.0,0.,12.0
1979-08-07 19:38:25.570 ,3,1,0.,12.0,0.,12.0,0.,12.0,0.,12.0
1979-08-07 19:38:37.570 ,3,1,0.,12.0,0.,12.0,0.,12.0,0.,12.0
1979-08-07 19:38:49.570 ,7,1,0.,12.0,0.,12.0,0.,12.0,0.,12.0
1979-08-07 19:39:01.570 ,7,1,0.,12.0,0.,12.0,0.,12.0,0.,12.0
1979-08-07 19:39:13.570 ,4,1,0.,12.0,0.,12.0,0.,12.0,0.,12.0
1979-08-07 19:39:25.570 ,4,1,0.,12.0,0.,12.0,0.,12.0,0.,12.0
1979-08-07 19:39:37.570 ,0,1,0.,12.0,0.,12.0,0.,12.0,0.,12.0
1979-08-07 19:39:49.570 ,0,1,0.,12.0,0.,12.0,0.,12.0,0.,12.0
1979-08-07 19:40:01.570 ,3,1,0.,12.0,0.,12.0,0.,12.0,0.,12.0
1979-08-07 19:40:13.570 ,3,1,0.,12.0,0.,12.0,0.,12.0,0.,12.0
1979-08-07 19:40:25.570 ,7,1,0.,12.0,0.,12.0,0.,12.0,0.,12.0
1979-08-07 19:40:37.570 ,7,1,0.,12.0,0.,12.0,0.,12.0,0.,12.0
1979-08-07 19:40:49.570 ,4,1,0.,12.0,0.,12.0,0.,12.0,0.,12.0
1979-08-07 19:41:01.570 ,4,1,0.,12.0,0.,12.0,0.,12.0,0.,12.0
1979-08-07 19:41:13.570 ,0,1,0.,12.0,0.,12.0,0.,12.0,0.,12.0
1979-08-07 19:41:25.570 ,0,1,0.,12.0,0.,12.0,0.,12.0,0.,12.0
1979-08-07 19:41:37.570 ,0,0,0.,12.0,0.,12.0,0.,12.0,0.,12.0
1979-08-07 19:41:49.570 ,0,0,0.,12.0,0.,12.0,0.,12.0,0.,12.0
1979-08-07 19:42:01.570 ,0,0,0.,12.0,0.,12.0,0.,12.0,0.,12.0
1979-08-07 19:42:13.570 ,0,0,0.,12.0,0.,12.0,0.,12.0,0.,12.0
1979-08-07 19:42:25.570 ,5,1,0.,12.0,0.,12.0,0.,12.0,0.,12.0
1979-08-07 19:42:37.570 ,5,1,0.,12.0,0.,12.0,0.,12.0,0.,12.0
1979-08-07 19:42:49.570 ,5,0,0.,12.0,0.,12.0,0.,12.0,0.,12.0
1979-08-07 19:43:01.570 ,5,0,0.,12.0,0.,12.0,0.,12.0,0.,12.0
1979-08-07 19:43:13.570 ,4,1,0.,12.0,0.,12.0,0.,12.0,0.,12.0
1979-08-07 19:43:25.570 ,4,1,0.,12.0,0.,12.0,0.,12.0,0.,12.0
1979-08-07 19:43:37.570 ,4,0,0.,12.0,0.,12.0,0.,12.0,0.,12.0
1979-08-07 19:43:49.570 ,4,0,0.,12.0,0.,12.0,0.,12.0,0.,12.0
1979-08-07 19:44:01.570 ,3,1,0.,12.0,0.,12.0,0.,12.0,0.,12.0
1979-08-07 19:44:13.570 ,3,1,0.,12.0,0.,12.0,0.,12.0,0.,12.0
1979-08-07 19:44:25.570 ,3,0,0.,12.0,0.,12.0,0.,12.0,0.,12.0
1979-08-07 19:44:37.570 ,3,0,0.,12.0,0.,12.0,0.,12.0,0.,12.0
1979-08-07 19:44:49.570 ,2,1,0.,12.0,0.,12.0,0.,12.0,0.,12.0
1979-08-07 19:45:01.570 ,2,1,0.,12.0,0.,12.0,0.,12.0,0.,12.0
1979-08-07 19:45:13.570 ,2,0,0.,12.0,0.,12.0,0.,12.0,0.,12.0
1979-08-07 19:45:25.570 ,2,0,0.,12.0,0.,12.0,0.,12.0,0.,12.0
1979-08-07 19:45:37.570 ,1,1,0.,12.0,0.,12.0,0.,12.0,0.,12.0
1979-08-07 19:45:49.570 ,1,1,0.,12.0,0.,12.0,0.,12.0,0.,12.0
1979-08-07 19:46:01.570 ,1,0,0.,12.0,0.,12.0,0.,12.0,0.,12.0
1979-08-07 19:46:13.570 ,1,0,0.,12.0,0.,12.0,0.,12.0,0.,12.0
1979-08-07 19:46:25.570 ,0,1,0.,12.0,0.,12.0,0.,12.0,0.,12.0
1979-08-07 19:46:37.570 ,0,1,0.,12.0,0.,12.0,0.,12.0,0.,12.0
1979-08-07 19:46:49.570 ,0,0,0.,12.0,0.,12.0,0.,12.0,0.,12.0
1979-08-07 19:47:01.570 ,0,0,0.,12.0,0.,12.0,0.,12.0,0.,12.0
1979-08-07 19:47:13.570 ,0,1,0.,12.0,0.,12.0,0.,12.0,0.,12.0
1979-08-07 19:47:25.570 ,0,1,0.,12.0,0.,12.0,0.,12.0,0.,12.0
1979-08-07 19:47:37.570 ,0,0,0.,12.0,0.,12.0,0.,12.0,0.,12.0
1979-08-07 19:47:49.570 ,0,0,0.,12.0,0.,12.0,0.,12.0,0.,12.0
1979-08-07 19:48:01.570 ,1,1,0.,12.0,0.,12.0,0.,12.0,0.,12.0
1979-08-07 19:48:13.570 ,1,1,0.,12.0,0.,12.0,0.,12.0,0.,12.0
1979-08-07 19:48:25.570 ,1,0,0.,12.0,0.,12.0,0.,12.0,0.,12.0
1979-08-07 19:48:37.570 ,1,0,0.,12.0,0.,12.0,0.,12.0,0.,12.0
1979-08-07 19:48:49.570 ,2,1,0.,12.0,0.,12.0,0.,12.0,0.,12.0
1979-08-07 19:49:01.570 ,2,1,0.,12.0,0.,12.0,0.,12.0,0.,12.0
1979-08-07 19:49:13.570 ,2,0,0.,12.0,0.,12.0,0.,12.0,0.,12.0
1979-08-07 19:49:25.570 ,2,0,0.,12.0,0.,12.0,0.,12.0,0.,12.0